{"data":{"norad_id":61665,"intl_designator":"2024-193E","name":"STARLINK-32439","alt_names":[],"object_type":"PAYLOAD","status":"ACTIVE","operator":null,"country":"US","launch_date":"2024-10-26","launch_site_code":"AFETR","launch_vehicle":null,"mission":null,"orbit_class":"UNKNOWN","rcs_meters":null,"size_class":null,"mass_kg":null,"dimensions":null,"purposes":["comms"],"wikipedia_slug":null,"has_3d_model":false,"image_url":null,"decayed_at":null,"tle_current":{"epoch":"2026-05-25T02:50:50.368128Z","epoch_age_seconds":61301,"freshness":"FRESH","line1":"1 61665U 24193E   26145.11863852 -.00000356  00000+0  10207-6 0  9995","line2":"2 61665  53.1611  96.3261 0001391  92.2683 267.8477 15.30192037 88226","mean_motion":15.30192037,"eccentricity":0.0001391,"inclination_deg":53.1611,"raan_deg":96.3261,"arg_perigee_deg":92.2683,"mean_anomaly_deg":267.8477,"bstar":1.0207e-7,"rev_number":8822,"period_min":94.105835423322,"perigee_km":474.28554102497,"apogee_km":476.19215018521,"semimajor_km":6853.3758456051,"source":"CELESTRAK","updated_at":"2026-05-25T13:38:19.412535Z"}}}